{"data":{"norad_id":58915,"intl_designator":"2024-023L","name":"GEESAT-2 11","alt_names":[],"object_type":"PAYLOAD","status":"ACTIVE","operator":null,"country":"PRC","launch_date":"2024-02-02","launch_site_code":"XICLF","launch_vehicle":null,"mission":null,"orbit_class":"UNKNOWN","rcs_meters":null,"size_class":null,"mass_kg":null,"dimensions":null,"purposes":[],"wikipedia_slug":null,"has_3d_model":false,"image_url":null,"decayed_at":null,"tle_current":{"epoch":"2026-09-22T17:02:35.572416Z","epoch_age_seconds":61441,"freshness":"FRESH","line1":"1 58915U 24023L   26265.71013394  .00001031  00000+0  15162-3 0  9990","line2":"2 58915  49.9994 262.2524 0018195 127.2138 233.0464 14.83436001143397","mean_motion":14.83436001,"eccentricity":0.0018195,"inclination_deg":49.9994,"raan_deg":262.2524,"arg_perigee_deg":127.2138,"mean_anomaly_deg":233.0464,"bstar":0.00015162,"rev_number":14339,"period_min":97.071932933357,"perigee_km":605.76890965348,"apogee_km":631.22966911054,"semimajor_km":6996.636289382,"source":"CELESTRAK","updated_at":"2026-09-23T09:00:19.073191Z"}}}